COSMOS 2251 DEB, 47062

Orbit data source: Space-Track

COSMOS 2251 DEB, 47062 is space debris in LEO originally from a launch on Wed, 16 Jun 1993 UTC launched from the Plesetsk Missile And Space Complex (PKMTR). The debris from Iridium 33, an American commercial communications satellite, has been tracked extensively since its accidental collision with the defunct Russian satellite Cosmos 2251 in 2009. This event, occurring at high speed in low Earth orbit (LEO), generated thousands of pieces of space debris, significantly increasing the risk of further collisions. The Iridium 33 debris cloud has impacted space traffic management and orbital debris mitigation strategies, making it a subject of ongoing study in space situational awareness.

Loading next visibility...
Identifier
47062, 1993-036BXS
Orbit
LEO
Country
Flag of CISCIS
Related business
Manufacturer
Unknown
Mission
Spacecraft
Bus & Motor
Unknown
Mass
Unknown
Launch date (UTC)
1993-06-16 (33 years ago)
Launch vehicle
Unknown
Launch site
Plesetsk Missile And Space Complex (PKMTR)
Object type
Payload
Rocket body
Debris
Shape & HBR
Unknown shape, 0.1 m
Radar Cross Section
Small (<0.1 m²)

Expand to show TLE details & history
Last TLE update: 3 weeks ago

TLE from 3 weeks ago
0 COSMOS 2251 DEB
1 47062U 93036BXS 26104.09786735  .00000477  00000-0  37666-3 0  9997
2 47062  74.0804 236.3268 0323902 333.7316 207.6937 13.72305270572805
Epoch: 2026-04-14T02:20Z
TLE epoch observation values (Epoch: 2026-04-14T02:20:55.739Z)
Latitude
0.12473°
Longitude
178.78016°
Altitude
1,206.813 km
Speed
7.145 km/s
True Right ascension
03h 45m 09s
True Declination
0° 07' 26"
Sunlit
Object was in daylight at epoch
Visualization orbit readout
Latitude
Unknown
Longitude
Unknown
Altitude
Unknown
Speed
Unknown
Apparent Right ascension
Unknown
Apparent Declination
Unknown
Sunlit
N/A
Visualization observer readout
Local Sidereal Time
17:13:32
Azimuth
Unknown
Elevation
Unknown
Doppler factor
Unknown
Orbital elements
Apogee altitude
1,227.617 km
Perigee altitude
750.371 km
Semi-major axis
7,367.131 km
Eccentricity
0.03239
Inclination
74.0804°
RAAN
236.3268°
Arg. of periapsis
333.7316°
True anomaly
206.02874°
Mean anomaly
207.6937°
Eccentric anomaly
206.85535°
Mean motion
3.43238 °/min
Orbital period
104.88 mins
BSTAR
0.00037666
Loading maneuver chart data...
Computing Atmospheric mass density...
Loading historical data...
Loading historical data...
Loading historical data...
Loading historical data...
Loading historical data...
Loading historical data...
Loading historical data...

Documentation

Showing up to 5 results
|